| time (UTC) | temp F | wind direction | speed MPH | gust MPH | rain 1hr in | rain 24hr in | rain mn in | humidity % | barometer mb |
| 20260508220026 | 63 | 240 | 2.0 | 12.0 | 0.00 | 0.00 | 0.00 | 34 | 1005.4 |
| 20260508214532 | 62 | 202 | 5.0 | 13.0 | 0.00 | 0.00 | 0.00 | 34 | 1005.5 |
| 20260508213025 | 64 | 188 | 7.0 | 14.0 | 0.00 | 0.00 | 0.00 | 32 | 1005.6 |
| 20260508211526 | 64 | 192 | 10.0 | 17.0 | 0.00 | 0.00 | 0.00 | 32 | 1005.6 |
| 20260508210032 | 65 | 157 | 3.0 | 14.0 | 0.00 | 0.00 | 0.00 | 33 | 1005.5 |
| 20260508204521 | 63 | 248 | 4.0 | 11.0 | 0.00 | 0.00 | 0.00 | 34 | 1005.8 |
| 20260508203024 | 62 | 258 | 9.0 | 16.0 | 0.00 | 0.00 | 0.00 | 35 | 1006.1 |
| 20260508201517 | 62 | 173 | 6.0 | 25.0 | 0.00 | 0.00 | 0.00 | 34 | 1006.3 |
| 20260508200017 | 62 | 182 | 8.0 | 19.0 | 0.00 | 0.00 | 0.00 | 34 | 1006.5 |
| 20260508194513 | 62 | 212 | 6.0 | 21.0 | 0.00 | 0.00 | 0.00 | 35 | 1006.7 |
| 20260508193013 | 61 | 138 | 9.0 | 24.0 | 0.00 | 0.00 | 0.00 | 36 | 1006.9 |
| 20260508191510 | 62 | 339 | 5.0 | 20.0 | 0.00 | 0.00 | 0.00 | 36 | 1007.0 |
| 20260508190007 | 62 | 281 | 6.0 | 19.0 | 0.00 | 0.00 | 0.00 | 36 | 1007.4 |
| 20260508184509 | 62 | 259 | 7.0 | 23.0 | 0.00 | 0.00 | 0.00 | 36 | 1007.9 |
| 20260508183005 | 61 | 231 | 6.0 | 30.0 | 0.00 | 0.00 | 0.00 | 36 | 1007.6 |
| 20260508181503 | 60 | 266 | 6.0 | 18.0 | 0.00 | 0.00 | 0.00 | 35 | 1007.9 |
| 20260508180003 | 61 | 163 | 6.0 | 21.0 | 0.00 | 0.00 | 0.00 | 36 | 1007.9 |
| 20260508174601 | 60 | 276 | 7.0 | 17.0 | 0.00 | 0.00 | 0.00 | 36 | 1008.0 |
| 20260508173059 | 60 | 217 | 8.0 | 20.0 | 0.00 | 0.00 | 0.00 | 36 | 1008.2 |
| 20260508171557 | 60 | 259 | 11.0 | 22.0 | 0.00 | 0.00 | 0.00 | 35 | 1008.4 |
| 20260508170059 | 58 | 205 | 10.0 | 19.0 | 0.00 | 0.00 | 0.00 | 37 | 1008.7 |
| 20260508164553 | 59 | 206 | 6.0 | 20.0 | 0.00 | 0.00 | 0.00 | 37 | 1008.7 |
| 20260508163104 | 58 | 265 | 8.0 | 24.0 | 0.00 | 0.00 | 0.00 | 37 | 1008.8 |
| 20260508161556 | 57 | 245 | 6.0 | 17.0 | 0.00 | 0.00 | 0.00 | 39 | 1009.0 |
| 20260508160045 | 56 | 238 | 9.0 | 20.0 | 0.00 | 0.00 | 0.00 | 42 | 1009.2 |
| 20260508154543 | 56 | 184 | 5.0 | 23.0 | 0.00 | 0.00 | 0.00 | 45 | 1009.3 |
| 20260508153054 | 54 | 206 | 6.0 | 15.0 | 0.00 | 0.00 | 0.00 | 45 | 1009.4 |
| 20260508151538 | 55 | 267 | 8.0 | 19.0 | 0.00 | 0.00 | 0.00 | 46 | 1009.6 |
| 20260508150037 | 54 | 183 | 4.0 | 15.0 | 0.00 | 0.00 | 0.00 | 51 | 1009.5 |
| 20260508144535 | 54 | 190 | 6.0 | 18.0 | 0.00 | 0.00 | 0.00 | 51 | 1009.6 |
| 20260508143055 | 54 | 226 | 6.0 | 22.0 | 0.00 | 0.00 | 0.00 | 53 | 1009.8 |
| 20260508141531 | 54 | 192 | 3.0 | 12.0 | 0.00 | 0.00 | 0.00 | 57 | 1009.9 |
| 20260508140027 | 52 | 140 | 7.0 | 16.0 | 0.00 | 0.00 | 0.00 | 59 | 1009.9 |
| 20260508134533 | 51 | 202 | 6.0 | 12.0 | 0.00 | 0.00 | 0.00 | 61 | 1010.0 |
| 20260508133021 | 48 | 202 | 4.0 | 11.0 | 0.00 | 0.00 | 0.00 | 66 | 1010.0 |
| 20260508131517 | 47 | 192 | 2.0 | 10.0 | 0.00 | 0.00 | 0.00 | 70 | 1010.1 |
| 20260508130013 | 46 | 186 | 3.0 | 12.0 | 0.00 | 0.00 | 0.00 | 71 | 1010.2 |
| 20260508124511 | 45 | 155 | 2.0 | 6.0 | 0.00 | 0.00 | 0.00 | 72 | 1010.4 |
| 20260508123014 | 44 | 136 | 2.0 | 7.0 | 0.00 | 0.00 | 0.00 | 76 | 1010.4 |
| 20260508121504 | 42 | 169 | 0.0 | 4.0 | 0.00 | 0.00 | 0.00 | 77 | 1010.4 |
| 20260508120001 | 40 | 202 | 1.0 | 3.0 | 0.00 | 0.00 | 0.00 | 83 | 1010.4 |
| 20260508114605 | 37 | 202 | 0.0 | 3.0 | 0.00 | 0.00 | 0.00 | 86 | 1010.4 |
| 20260508113001 | 36 | 205 | 2.0 | 5.0 | 0.00 | 0.00 | 0.00 | 88 | 1010.3 |
| 20260508111604 | 36 | 205 | 0.0 | 1.0 | 0.00 | 0.00 | 0.00 | 88 | 1010.3 |
| 20260508110105 | 36 | 205 | 0.0 | 2.0 | 0.00 | 0.00 | 0.00 | 89 | 1010.3 |
| 20260508104600 | 35 | 206 | 0.0 | 1.0 | 0.00 | 0.00 | 0.00 | 89 | 1010.5 |
| 20260508103100 | 36 | 206 | 0.0 | 2.0 | 0.00 | 0.00 | 0.00 | 88 | 1010.3 |
| 20260508101557 | 36 | 206 | 0.0 | 0.0 | 0.00 | 0.00 | 0.00 | 87 | 1010.2 |
| 20260508100128 | 36 | 206 | 0.0 | 0.0 | 0.00 | 0.00 | 0.00 | 85 | 1010.4 |
| 20260508094554 | 38 | 206 | 0.0 | 2.0 | 0.00 | 0.00 | 0.00 | 82 | 1010.4 |
| 20260508093054 | 38 | 206 | 0.0 | 3.0 | 0.00 | 0.00 | 0.00 | 81 | 1010.5 |
| 20260508091608 | 37 | 211 | 1.0 | 4.0 | 0.00 | 0.00 | 0.00 | 84 | 1010.6 |
| 20260508090052 | 35 | 227 | 0.0 | 2.0 | 0.00 | 0.00 | 0.00 | 87 | 1010.5 |
| 20260508084549 | 34 | 227 | 0.0 | 2.0 | 0.00 | 0.00 | 0.00 | 86 | 1010.6 |
| 20260508083048 | 35 | 227 | 0.0 | 0.0 | 0.00 | 0.00 | 0.00 | 85 | 1010.6 |
| 20260508081607 | 35 | 227 | 0.0 | 2.0 | 0.00 | 0.00 | 0.00 | 84 | 1010.7 |
| 20260508080048 | 36 | 227 | 0.0 | 2.0 | 0.00 | 0.00 | 0.00 | 81 | 1010.8 |
| 20260508074541 | 37 | 227 | 1.0 | 4.0 | 0.00 | 0.00 | 0.00 | 80 | 1011.0 |
| 20260508073046 | 38 | 216 | 2.0 | 4.0 | 0.00 | 0.00 | 0.00 | 79 | 1011.1 |
| 20260508071540 | 38 | 216 | 1.0 | 3.0 | 0.00 | 0.00 | 0.00 | 79 | 1011.3 |
| 20260508070037 | 39 | 215 | 0.0 | 2.0 | 0.00 | 0.00 | 0.00 | 77 | 1011.2 |
| 20260508064538 | 40 | 215 | 1.0 | 4.0 | 0.00 | 0.00 | 0.00 | 74 | 1011.4 |
| 20260508063036 | 40 | 230 | 2.0 | 7.0 | 0.00 | 0.00 | 0.00 | 74 | 1011.7 |
| 20260508061534 | 40 | 224 | 2.0 | 6.0 | 0.00 | 0.00 | 0.00 | 74 | 1011.6 |
| 20260508060048 | 39 | 190 | 2.0 | 5.0 | 0.00 | 0.00 | 0.00 | 75 | 1011.7 |
| 20260508054607 | 39 | 225 | 0.0 | 4.0 | 0.00 | 0.00 | 0.00 | 75 | 1011.7 |
| 20260508053044 | 38 | 207 | 1.0 | 4.0 | 0.00 | 0.00 | 0.00 | 75 | 1011.7 |
| 20260508051528 | 38 | 223 | 0.0 | 3.0 | 0.00 | 0.00 | 0.00 | 75 | 1011.8 |
| 20260508050030 | 37 | 223 | 0.0 | 3.0 | 0.00 | 0.00 | 0.00 | 77 | 1011.9 |
| 20260508041516 | 39 | 225 | 0.0 | 1.0 | 0.00 | 0.00 | 0.00 | 72 | 1012.0 |
| 20260508040013 | 41 | 225 | 1.0 | 3.0 | 0.00 | 0.00 | 0.00 | 68 | 1012.0 |
| 20260508034513 | 41 | 217 | 1.0 | 4.0 | 0.00 | 0.00 | 0.00 | 66 | 1011.9 |
| 20260508033017 | 42 | 219 | 1.0 | 5.0 | 0.00 | 0.00 | 0.00 | 64 | 1011.8 |
| 20260508031514 | 42 | 196 | 2.0 | 7.0 | 0.00 | 0.00 | 0.00 | 63 | 1011.9 |
| 20260508030011 | 42 | 206 | 2.0 | 5.0 | 0.00 | 0.00 | 0.00 | 63 | 1011.9 |
| 20260508024511 | 43 | 211 | 1.0 | 4.0 | 0.00 | 0.00 | 0.00 | 62 | 1011.8 |
| 20260508023011 | 43 | 227 | 2.0 | 5.0 | 0.00 | 0.00 | 0.00 | 62 | 1011.9 |
| 20260508021510 | 43 | 229 | 1.0 | 5.0 | 0.00 | 0.00 | 0.00 | 62 | 1011.9 |
| 20260508020009 | 43 | 211 | 0.0 | 7.0 | 0.00 | 0.00 | 0.00 | 62 | 1012.0 |
| 20260508014509 | 43 | 196 | 1.0 | 4.0 | 0.00 | 0.00 | 0.00 | 61 | 1011.8 |
| 20260508013010 | 44 | 182 | 0.0 | 3.0 | 0.00 | 0.00 | 0.00 | 62 | 1011.7 |
| 20260508011507 | 44 | 182 | 1.0 | 2.0 | 0.00 | 0.00 | 0.00 | 59 | 1011.7 |
| 20260508010016 | 45 | 182 | 0.0 | 4.0 | 0.00 | 0.00 | 0.00 | 58 | 1011.6 |
| 20260508004514 | 45 | 182 | 1.0 | 5.0 | 0.00 | 0.00 | 0.00 | 56 | 1011.5 |
| 20260508003008 | 46 | 214 | 1.0 | 7.0 | 0.00 | 0.00 | 0.00 | 54 | 1011.6 |
| 20260508001506 | 47 | 240 | 3.0 | 8.0 | 0.00 | 0.00 | 0.00 | 53 | 1011.5 |
| 20260508000005 | 47 | 199 | 2.0 | 5.0 | 0.00 | 0.00 | 0.00 | 51 | 1011.3 |
| 20260507234505 | 48 | 191 | 3.0 | 12.0 | 0.00 | 0.00 | 0.00 | 51 | 1011.2 |
| 20260507233007 | 49 | 237 | 3.0 | 10.0 | 0.00 | 0.00 | 0.00 | 50 | 1011.3 |
| 20260507231504 | 49 | 291 | 5.0 | 10.0 | 0.00 | 0.00 | 0.00 | 49 | 1011.2 |
| 20260507230002 | 50 | 211 | 2.0 | 8.0 | 0.00 | 0.00 | 0.00 | 48 | 1011.3 |
| 20260507224505 | 49 | 269 | 5.0 | 13.0 | 0.00 | 0.00 | 0.00 | 47 | 1011.4 |
| 20260507223100 | 48 | 328 | 4.0 | 12.0 | 0.00 | 0.00 | 0.00 | 49 | 1011.4 |
| 20260507221559 | 48 | 271 | 4.0 | 11.0 | 0.00 | 0.00 | 0.00 | 48 | 1011.7 |